Weather History for Amman, Jordan

Change the Weather History Date:

Sunday, December 30, 2012

  Actual Average Record
Temperature  
Mean Temperature 52 °F -  
Max Temperature 59 °F 52 °F 69 °F (1999)
Min Temperature 44 °F 39 °F 32 °F (2006)
Degree Days  
Heating Degree Days 14    
Growing Degree Days 2 (Base 50)    
Moisture  
Dew Point 41 °F    
Average Humidity 72    
Maximum Humidity 87    
Minimum Humidity 48    
Precipitation  
Precipitation 0.00 in 0.08 in - ()
Sea Level Pressure  
Sea Level Pressure 30.10 in    
Wind  
Wind Speed 1 mph ()    
Max Wind Speed 7 mph    
Max Gust Speed -    
Visibility 2.9 miles    
Events      
Averages and records for this station are not official NWS values.
T = Trace of Precipitation, MM = Missing Value Source: Averaged Metar Reports

Daily Weather History Graph

Daily Weather History Graph

Search for Another Location

Airport:

Trip Planner

Search our weather history database for the weather conditions in past years. The results will help you decide how hot, cold, wet, or windy it might be!

Date:

Astronomy

Dec. 30, 2012 Rise Set
Actual Time 7:36 AM EEST 5:41 PM EEST
Civil Twilight 7:09 AM EEST 6:08 PM EEST
Nautical Twilight 6:38 AM EEST 6:38 PM EEST
Astronomical Twilight 6:08 AM EEST 7:08 PM EEST
Moon 7:43 PM EEST (12/30) 8:40 AM EEST (12/30)
Length of Visible Light 10h 59m
Length of Day
10h 05m
Waning Gibbous, 96% of the Moon is Illuminated
Dec 30
Waning Gibbous
Jan 5
Last Quarter
Jan 11
New
Jan 19
First Quarter
Jan 27
Full

Hourly Weather History & Observations

Time (EEST) Temp. Windchill Dew Point Humidity Pressure Visibility Wind Dir Wind Speed Gust Speed Precip Events Conditions
12:00 AM 48.2 °F - 41.0 °F 76% 30.09 in 3.1 mi Calm Calm - N/A   Haze
1:00 AM 46.4 °F - 41.0 °F 81% 30.09 in 3.1 mi Calm Calm - N/A   Haze
2:00 AM 46.4 °F - 41.0 °F 81% 30.09 in 3.1 mi Calm Calm - N/A   Haze
3:00 AM 46.4 °F - 41.0 °F 81% 30.06 in 3.1 mi Calm Calm - N/A   Haze
5:00 AM 46.4 °F 45.2 °F 41.0 °F 81% 30.06 in 3.1 mi SW 3.5 mph - N/A   Haze
6:00 AM 44.6 °F - 39.2 °F 81% 30.06 in 2.5 mi Calm Calm - N/A   Haze
7:00 AM 44.6 °F - 41.0 °F 87% 30.09 in 2.5 mi Calm Calm - N/A   Haze
8:00 AM 44.6 °F - 41.0 °F 87% 30.09 in 1.2 mi Calm Calm - N/A   Haze
9:00 AM 46.4 °F - 41.0 °F 81% 30.12 in 1.2 mi Calm Calm - N/A   Mist
10:00 AM 51.8 °F - 46.4 °F 82% 30.12 in 1.9 mi Calm Calm - N/A   Mist
11:00 AM 53.6 °F - 44.6 °F 72% 30.12 in 2.5 mi ENE 3.5 mph - N/A   Haze
12:00 PM 53.6 °F - 44.6 °F 72% 30.12 in 3.7 mi ENE 4.6 mph - N/A   Partly Cloudy
1:00 PM 55.4 °F - 42.8 °F 63% 30.12 in 3.7 mi SE 6.9 mph - N/A   Partly Cloudy
2:00 PM 57.2 °F - 39.2 °F 51% 30.09 in 3.1 mi Calm Calm - N/A   Haze
3:00 PM 59.0 °F - 39.2 °F 48% 30.09 in 3.1 mi Calm Calm - N/A   Haze
4:00 PM 59.0 °F - 39.2 °F 48% 30.09 in 3.1 mi Calm Calm - N/A   Haze
5:00 PM 57.2 °F - 39.2 °F 51% 30.12 in 3.1 mi Calm Calm - N/A   Haze
6:00 PM 55.4 °F - 41.0 °F 58% 30.09 in 3.1 mi North 4.6 mph - N/A   Haze
7:00 PM 51.8 °F - 42.8 °F 71% 30.09 in 3.1 mi Calm Calm - N/A   Haze
8:00 PM 51.8 °F - 42.8 °F 71% 30.09 in 3.1 mi Calm Calm - N/A   Haze
9:00 PM 50.0 °F - 42.8 °F 76% 30.12 in 3.1 mi Calm Calm - N/A   Haze
10:00 PM 48.2 °F - 41.0 °F 76% 30.12 in 3.1 mi Calm Calm - N/A   Haze
11:00 PM 48.2 °F - 41.0 °F 76% 30.12 in 3.1 mi Calm Calm - N/A   Haze